Hourly Data Report for October 15, 2021

MUSKOKA
ONTARIO
Current Station Operator: NAVCAN

44°58'29.000" N
79°18'12.000" W
281.90 m
6115529
71532
YQA

Download Data

Hourly Data (October 2021)
Hourly Data Report for October 15, 2021
TIME
LST
Temp Definition
°C
Dew Point Definition
°C
Rel Hum Definition
%
Precip. Amount Definition
mm

Wind Dir Definition
10's deg

Wind Spd Definition
km/h
Visibility Definition
km
Stn Press Definition
kPa
Hmdx Definition


Wind Chill Definition


Weather Definition


00:00 17.2 15.4 89 0.2 16 11 16.1 97.69     LegendNANA
01:00 17.1 15.3 89 0.0 16 9 16.1 97.68     LegendNANA
02:00 17.0 15.7 92 0.0 19 5 8.1 97.70     Fog
03:00 16.8 16.2 96 0.0 30 8 8.1 97.67     Fog
04:00 16.1 15.5 96 0.0 30 5 14.5 97.72     LegendNANA
05:00 16.2 15.6 96 0.0 28 5 14.5 97.76     LegendNANA
06:00 15.4 14.3 93 0.0 31 11 16.1 97.78     LegendNANA
07:00 15.0 14.2 95 0.0 LegendMM 4 16.1 97.83     LegendNANA
08:00 15.7 14.9 95 0.0 25 8 16.1 97.88     LegendNANA
09:00 15.8 14.5 92 0.0 25 8 16.1 97.89     LegendNANA
10:00 16.0 13.7 86 0.0 30 9 16.1 97.84     LegendNANA
11:00 16.3 13.4 83 0.0 28 5 16.1 97.83     LegendNANA
12:00 17.1 12.6 74 0.0 22 5 16.1 97.82     LegendNANA
13:00 18.9 12.3 65 0.0 LegendMM 4 16.1 97.74     LegendNANA
14:00 18.3 12.8 70 0.0 23 5 16.1 97.66     LegendNANA
15:00 18.7 12.9 69 0.0 23 5 16.1 97.65     LegendNANA
16:00 17.8 13.0 73 0.0 28 5 16.1 97.61     LegendNANA
17:00 17.3 13.4 78 0.0 30 8 16.1 97.61     LegendNANA
18:00 15.9 14.3 90 0.2 32 8 16.1 97.60     Rain
19:00 15.2 14.9 98 0.0 33 4 16.1 97.53     LegendNANA
20:00 14.9 14.4 97 0.2 35 8 16.1 97.43     LegendNANA
21:00 13.1 12.2 94 3.2 34 9 12.9 97.38     Moderate Rain
22:00 12.8 12.3 97 2.8 36 5 16.1 97.28     LegendNANA
23:00 13.1 12.5 96 0.2 30 18 16.1 97.32     LegendNANA

Notes on Data Quality.

Legend

  • E = Estimated
  • M = Missing
  • NA = Not Available*
  • [empty] = Indicates an unobserved value
Date modified: